Regional Weather Roundup
Issued by NWS

Home | Current Version | Previous Version | Text Only | Print | Product List | Glossary Off
Versions: 1 2 3 4 5 6 7 8 9 10 11 12 13 14 15 16 17 18 19 20 21 22 23 24 25 26 27 28 29 30 31 32 33 34 35 36 37 38 39 40 41 42 43 44 45 46 47 48 49 50

000
ASUS43 KDMX 290207
RWRIA

WEATHER ROUNDUP FOR IOWA
NATIONAL WEATHER SERVICE DES MOINES IA
900 PM CDT TUE JUL 28 2015

NOTE: "FAIR" INDICATES FEW OR NO CLOUDS BELOW 12,000 FEET WITH NO
SIGNIFICANT WEATHER AND/OR OBSTRUCTIONS TO VISIBILITY.

* - THESE STATIONS ARE NOT NWS STATIONS...THUS NOT UNDER NWS
QUALITY CONTROL.  THEY ALSO DO NOT REPORT WEATHER SUCH
AS PRECIPITATION OR FOG.

IAZ001>003-012>014-020>022-031>034-043>046-290300-
   NORTHWEST IOWA

CITY           SKY/WX    TMP DP  RH WIND       PRES   REMARKS
CARROLL *      CLOUDY    75  72  88 N6        29.95R
CHEROKEE *     PTCLDY    72  64  78 NW3       29.96R
DENISON *      HAZE      73  68  83 N6        29.95R VSB 1
LE MARS *      CLEAR     70  64  83 CALM      29.96R
ORANGE CITY *  CLEAR     66  61  82 NW3       29.96R
SHELDON *      CLEAR     66  64  94 CALM      29.95R
SIOUX CITY     CLEAR     73  63  70 NW5       29.95R
SPENCER        PTCLDY    68  61  78 NW6       29.96R
STORM LAKE *   CLOUDY    73  66  78 NW10      29.97R
$$

IAZ055>058-069>071-079>083-090>094-290300-
   SOUTHWEST IOWA

CITY           SKY/WX    TMP DP  RH WIND       PRES   REMARKS
ATLANTIC *     CLOUDY    77  72  83 N13       29.95R
AUDUBON *      PTCLDY    75  70  83 N7        29.96R
CLARINDA *     LGT RAIN  75  73  94 VRB3      29.92R
COUNCIL BLFS * CLEAR     75  68  78 MISG      29.94R
CRESTON *      RAIN      70  68  94 W7G14     29.94R
HARLAN  *      CLOUDY    75  75 100 N9        29.98R
LAMONI         MOCLDY    85  77  77 SE5       29.91R HX  95
RED OAK *      CLOUDY    77  75  94 N8G15     29.92R
SHENANDOAH *   CLOUDY    79  75  89 N9        29.92R HX  82
$$

IAZ047>049-059>061-072>074-084-290300-
   CENTRAL IOWA

CITY           SKY/WX    TMP DP  RH WIND       PRES   REMARKS
AMES           LGT RAIN  74  72  93 S8        29.93R
ANKENY *       DRIZZLE   70  70 100 S12       29.97R
CHARITON *     CLOUDY    73  70  88 VRB7G14   29.95R
DES MOINES     TSTM      72  68  87 SE15      29.96R FOG
GRINNELL*      LGT RAIN  72  68  88 S5        29.92R
KNOXVILLE *    CLOUDY    72  70  94 NW20G28   29.95R
MARSHALLTOWN   TSTM      74  72  93 CALM      29.91R
PELLA *        HVY RAIN  72  72 100 NW12      29.97R
PERRY *        HVY RAIN  72  70  94 SE9G24    29.91R VSB 3/4
$$

IAZ004>006-015-016-023>025-035-036-290300-
   NORTH CENTRAL IOWA

CITY           SKY/WX    TMP DP  RH WIND       PRES   REMARKS
ALGONA *       PTCLDY    75  72  88 NW3       29.93R
CLARION *      MOCLDY    75  73  94 NW5       29.92F
ESTHERVILLE    CLEAR     68  62  81 NW7       29.94R
FORT DODGE *   CLOUDY    75  70  83 NW5       29.93S
MASON CITY     MOCLDY    74  73  97 NW6       29.92S
FOREST CITY *    N/A     73  72  94 NW5       29.91F
IOWA FALLS *   MOCLDY    73  72  94 CALM      29.93R
$$

IAZ007>011-017>019-026>030-037>042-050>054-066-290300-
   NORTHEAST IOWA

CITY           SKY/WX    TMP DP  RH WIND       PRES   REMARKS
CEDAR RAPIDS   CLOUDY    72  72 100 NE3       29.89F
CHARLES CITY * CLOUDY    75  75 100 CALM      29.92S
CLINTON *      CLOUDY    79  73  83 E6        29.92F HX  82
DECORAH *      PTCLDY    73  72  94 S3        29.92R
DUBUQUE        CLOUDY    75  72  90 CALM      29.93S
MONTICELLO *   CLEAR     73  72  94 NE5       29.90F
OELWEIN *      CLOUDY    73  72  94 S3        29.92F
WATERLOO       CLOUDY    73  71  93 SE5       29.88F
$$

IAZ064-065-067-068-078-290300-
   EAST CENTRAL IOWA

CITY           SKY/WX    TMP DP  RH WIND       PRES   REMARKS
DAVENPORT      CLOUDY    78  75  90 E7        29.89F HX  81
IOWA CITY      LGT RAIN  75  70  84 NE9       29.88R
MT. PLEASANT * CLOUDY    79  68  69 SE9       29.85F HX  81
MUSCATINE *    MOCLDY    81  75  83 E8        29.84F HX  86
QUAD CITIES    MOCLDY    81  74  79 E3        29.87F HX  86
$$

IAZ062-063-075>077-085>089-095>099-290300-
   SOUTHEAST IOWA

CITY           SKY/WX    TMP DP  RH WIND       PRES   REMARKS
BURLINGTON     MOCLDY    81  74  79 NW8G20    29.90F HX  86
FAIRFIELD *    MOCLDY    72  66  83 S6        29.88F
FORT MADISON * LGT RAIN  79  75  89 CALM      29.92F HX  82
KEOKUK *       MOCLDY    82  75  78 N8G18     29.91F HX  89
OSKALOOSA *      N/A     70  68  94 CALM      29.91R
CENTERVILLE *  CLEAR     72  68  88 E7        29.96R
OTTUMWA          N/A    N/A N/A N/A MISG      29.89S
WASHINGTON *   CLOUDY    73  70  88 S7G13     29.84F
$$

ABBREVIATIONS USED IN REMARKS
   TC - TEMPERATURES IN CELSIUS
  WCI - WIND CHILL INDEX
   HX - HEAT INDEX
  VSB - VISIBILITY
$$



USA.gov is the U.S. government's official web portal to all federal, state and local government web resources and services.